This is the latest recevied weather packets stored in our database for station/object AD0YN. If no packets are shown the sender has not sent any weather packets the latest 10 day(s).
| Time | Temp. | Humidity | Pressure | Rain* | Wind** | Luminosity | Snow |
|---|---|---|---|---|---|---|---|
| 1777901477 | 19.44° C | 56% | 1003.4 hPa | 0 mm | - | 318 W/m² | - |
| 1777901175 | 18.89° C | 56% | 1003.3 hPa | 0 mm | - | 301 W/m² | - |
| 1777900872 | 18.89° C | 56% | 1003.4 hPa | 0 mm | - | 283 W/m² | - |
| 1777900570 | 18.89° C | 56% | 1003.2 hPa | 0 mm | - | 263 W/m² | - |
| 1777900266 | 18.89° C | 57% | 1003.4 hPa | 0 mm | - | 246 W/m² | - |
| 1777899962 | 18.33° C | 57% | 1003.3 hPa | 0 mm | - | 231 W/m² | - |
| 1777899659 | 18.33° C | 57% | 1003.4 hPa | 0 mm | - | 215 W/m² | - |
| 1777899358 | 18.33° C | 58% | 1003.3 hPa | 0 mm | - | 198 W/m² | - |
| 1777899055 | 18.33° C | 59% | 1003.3 hPa | 0 mm | - | 182 W/m² | - |
| 1777898751 | 17.78° C | 59% | 1003.5 hPa | 0 mm | - | 164 W/m² | - |
| 1777898449 | 17.78° C | 59% | 1003.4 hPa | 0 mm | - | 152 W/m² | - |
| 1777898147 | 17.78° C | 59% | 1003.6 hPa | 0 mm | - | 136 W/m² | - |
| 1777897843 | 17.78° C | 60% | 1003.7 hPa | 0 mm | - | 120 W/m² | - |
| 1777897539 | 17.78° C | 60% | 1003.5 hPa | 0 mm | - | 108 W/m² | - |
| 1777897235 | 17.22° C | 60% | 1003.7 hPa | 0 mm | - | 96 W/m² | - |
| 1777896931 | 17.22° C | 60% | 1003.6 hPa | 0 mm | - | 86 W/m² | - |
| 1777896629 | 17.22° C | 60% | 1003.5 hPa | 0 mm | - | 76 W/m² | - |
| 1777896325 | 17.22° C | 61% | 1003.6 hPa | 0 mm | - | 66 W/m² | - |
| 1777896024 | 17.22° C | 61% | 1003.6 hPa | 0 mm | - | 55 W/m² | - |
| 1777895722 | 16.67° C | 61% | 1003.7 hPa | 0 mm | - | 39 W/m² | - |
| 1777895418 | 16.67° C | 62% | 1003.6 hPa | 0 mm | - | 34 W/m² | - |
| 1777895116 | 16.67° C | 62% | 1003.6 hPa | 0 mm | - | 30 W/m² | - |
| 1777894813 | 16.67° C | 63% | 1003.5 hPa | 0 mm | - | 25 W/m² | - |
| 1777894510 | 16.11° C | 64% | 1003.6 hPa | 0 mm | - | 20 W/m² | - |
| 1777894208 | 16.11° C | 65% | 1003.7 hPa | 0 mm | - | 16 W/m² | - |
* Rain latest hour (hover to see other rain measurements)
** Current wind speed in m/s (hover to see current wind gust speed)